Погода в Копках

Россия / Удмуртская Республика     57°22′47″N   51°45′06″E
темп.,
°C
ветер,
м/с
пор.,
м/с
влажн.,
%
обл.,
%
осадки,
мм/ч
давл.,
гПа
погр.,
м
9 марта, вт
вт901:00−12зсз1297100 0.1 100020
04:00−13ссз2296100 0.1 100220
07:00−16сз229792 0.0 100420
10:00−12ссз239074 0.0 1007262
13:00−8ссз118397 0.0 1008603
16:00−9с228698 0.1 1009473
19:00−12ссв3694100 0.1 1010167
22:00−14ссв4894100 0.1 1011268
10 марта, ср
ср1001:00−15св599399 0.1 1012402
04:00−18ссв5993100 0.3 1013403
07:00−22ссв51092100 0.1 1014365
10:00−23ссв598674 0.1 1016379
13:00−18с59820 0.0 1016597
16:00−16с510800 0.0 1016762
19:00−20ссз4119181 0.0 1017364
22:00−22ссз3119543 0.0 1018273
11 марта, чт
чт1101:00−24сз37980 0.0 1019133
04:00−25зсз25981 0.0 1019101
07:00−22зсз3897100 0.1 1019260
10:00−17сз3793100 0.1 1019354
13:00−12зсз4891100 0.1 1019530
16:00−8зсз51087100 0.4 1019905
19:00−9зсз4138699 0.0 1019559
22:00−12сз5158570 0.0 1021586
12 марта, пт
пт1201:00−14зсз4138937 0.0 1022396
04:00−16зсз4119131 0.0 1023322
07:00−15з4128794 0.0 1024356
10:00−12з5118396 0.0 1024469
13:00−9з6128095 0.0 1023699
16:00−9з6128398 0.0 1023754
19:00−10з51387100 0.0 1024634
22:00−10з41388100 0.0 1025538
13 марта, сб
сб1301:00−11з41390100 0.0 1026453
04:00−12з41091100 0.0 1027429
07:00−13з41092100 0.0 1028386
10:00−12зюз488696 0.0 1029356
13:00−9зюз4781100 0.0 1029431
16:00−8зюз4882100 0.0 1029502
19:00−11юз369381 0.0 1028115
22:00−14юз399564 0.0 1028230